Regional Weather Roundup
Issued by NWS Columbia, SC

Home | Current Version | Previous Version | Text Only | Print | Product List | Glossary On
Versions: 1 2 3 4 5 6 7 8 9 10 11 12 13 14 15 16 17 18 19 20 21 22 23 24 25 26 27 28 29 30 31 32 33 34 35 36 37 38 39 40 41 42 43 44 45 46 47 48 49 50
000
ASUS42 KCAE 060310
RWRCAE
REGIONAL WEATHER ROUNDUP
NATIONAL WEATHER SERVICE COLUMBIA SC
1000 PM EST FRI FEB 05 2016

NOTE: "FAIR" INDICATES FEW OR NO CLOUDS BELOW 12,000 FEET WITH NO
SIGNIFICANT WEATHER AND/OR OBSTRUCTIONS TO VISIBILITY.

NOT ALL STATIONS ARE QUALITY CONTROLLED BY THE NATIONAL
WEATHER SERVICE. USE DATA WITH CAUTION...ESPECIALLY
DEWPOINT OBSERVATIONS.

SCZ001>056-GAZ040-063>065-077-060400-
...UPSTATE SOUTH CAROLINA...

CITY           SKY/WX    TMP DP  RH WIND       PRES   REMARKS
ANDERSON       CLEAR     37  17  44 NE6       30.38R WCI  32
LIBERTY        CLEAR     36  15  42 E5        30.36S WCI  32
SPARTANBURG    CLEAR     36  14  41 NE5       30.38S WCI  32
CLEMSON        CLEAR     41  15  35 CALM      30.38R
GREENVILLE     CLEAR     36  15  42 N8        30.38R WCI  30
GREENWOOD      CLEAR     31  22  69 CALM      30.40R
GREER          CLEAR     37  17  44 NE5       30.37S WCI  33
ROCK HILL      CLEAR     32  22  66 CALM      30.39R
LAURENS        CLEAR     30  25  80 CALM      30.39R


...CENTRAL SOUTH CAROLINA...

CITY           SKY/WX    TMP DP  RH WIND       PRES   REMARKS
COLUMBIA APT   CLEAR     35  28  75 CALM      30.39R
COLUMBIA OWENS CLEAR     37  29  72 CALM      30.41R
MCENTIRE ANGB  CLEAR     32  28  85 CALM      30.40R
ORANGEBURG     CLEAR     36  29  75 CALM      30.40R
SUMTER SHAW    CLEAR     36  24  60 CALM      30.38R
NEWBERRY       CLEAR     32  27  80 CALM      30.42R
AIKEN          FAIR      32  27  80 CALM      30.42R
BARNWELL       FAIR      37  30  75 CALM      30.40S
MANNING        FAIR      32  21  64 CALM      30.41R
CAMDEN         FAIR      32  32 100 CALM      30.40S
LANCASTER      CLEAR     32  16  51 CALM      30.40R
WINNSBORO      CLEAR     36  23  60 E3        30.38S


...EASTERN AND COASTAL SOUTH CAROLINA...

CITY           SKY/WX    TMP DP  RH WIND       PRES   REMARKS
MYRTLE BEACH   CLEAR     37  28  70 N7        30.41S WCI  32
N MYRTLE BCH   CLEAR     37  33  85 CALM      30.39S
CONWAY         FAIR      34  32  93 CALM      30.40S
MARION         FAIR      34  32  93 NE5       30.40S WCI  30
HARTSVILLE     FAIR      36  23  60 CALM      30.39S
FLORENCE       CLEAR     35  28  75 N3        30.39F
DARLINGTON     CLEAR     34  27  75 CALM      30.40F
CHARLESTON APT CLEAR     40  31  70 N5        30.40R
MOUNT PLEASANT FAIR      39  36  87 CALM      30.40R
WALTERBORO     CLEAR     36  32  87 CALM      30.41R
BEAUFORT       CLEAR     41  28  60 N7        30.39S


...EASTERN GEORGIA...

CITY           SKY/WX    TMP DP  RH WIND       PRES   REMARKS
AUGUSTA BUSH F CLEAR     33  28  81 CALM      30.40R
AUGUSTA DANIEL CLEAR     44  19  36 NE5       30.39R
THOMSON        CLEAR     33  31  94 CALM      30.44R
WASHINGTON     FAIR      36  32  87 CALM      30.38R
CLAXTON        FAIR      37  36  94 CALM      30.39S
SYLVANIA       CLEAR     37  34  87 CALM      30.40R
STATESBORO     CLEAR     38  37  97 CALM      30.39S
SAVANNAH       CLEAR     42  27  55 NE6       30.39R


...SOUTHERN NORTH CAROLINA...

CITY           SKY/WX    TMP DP  RH WIND       PRES   REMARKS
CHARLOTTE      PTCLDY    38  13  35 N3        30.39R
MONROE         CLEAR     34  20  56 NE3       30.38R
WADESBORO      CLEAR     30  26  85 CALM      30.41R
ROCKINGHAM     CLEAR     32  24  72 CALM      30.39S
RUTHERFORDTON  CLEAR     34  13  40 CALM      30.39S
ASHEVILLE      CLEAR     30  14  51 N5        30.35S WCI  25

$$



USA.gov is the U.S. government's official web portal to all federal, state and local government web resources and services.